Location: Sarayc?k
(36.6500°N, 30.3667°E)
Time: 06:16:40
(UTC+00:00)

Daily predictions for brighter satellites

Satellite Brightness Start Highest point End
(mag) Time Altitude Azimuth Time Altitude Azimuth Time Altitude Azimuth
BREEZE-M DEB (TANK) 4.3 16:19:45 10° NNW 16:22:01 18° NNE 16:26:05 10° ENE
Lacrosse 5 rocket 4.3 16:28:49 10° NW 16:30:01 11° NNW 16:31:14 10° N
Sich 1 Rocket 4.3 16:26:51 10° SSE 16:30:51 33° E 16:34:54 10° NNE
Cosmos 1939 Rocket 3.3 16:27:46 10° S 16:31:51 69° W 16:35:59 10° NNW
CSL-04 Rocket 4.1 16:27:11 10° SE 16:32:13 42° ENE 16:37:21 10° N
Cosmos 807 4.5 16:29:32 10° SSE 16:32:23 46° E 16:35:39 10° NNE
CZ-2D R/B 3.3 16:28:38 10° SSE 16:32:31 89° E 16:36:26 10° NNW
Cosmos 1378 4.5 16:30:03 10° NNW 16:33:35 44° W 16:37:07 10° SSW
Meteor 1-21 4.5 16:28:49 10° N 16:34:12 46° ENE 16:39:32 10° SSE
Cosmos 1603 3.8 16:30:38 10° NNW 16:36:12 56° ENE 16:41:41 10° SE
Helios 1A Rocket 3.6 16:32:14 10° S 16:36:15 59° W 16:40:20 10° NNW
MOS 1 Rocket 3.6 16:34:05 10° NNE 16:38:08 35° E 16:42:04 10° SSE
SJ 16-02 3.7 16:35:29 10° SW 16:39:15 28° WNW 16:43:02 10° N
Cosmos 1937 Rocket 3.6 16:34:19 10° SSW 16:39:35 89° W 16:44:50 10° NNE
NOSS 2-2 (E) 3.2 16:38:13 10° SW 16:41:42 74° WNW 16:45:22 10° NNE
Cosmos 2112 Rocket 4.0 16:37:51 10° NNW 16:43:05 83° ENE 16:48:19 10° SSE
Cosmos 1464 Rocket 4.4 16:38:04 10° SSE 16:43:37 38° E 16:49:12 10° NNE
Cosmos 1680 Rocket 3.7 16:41:23 10° NNW 16:46:37 77° WSW 16:51:50 10° S
ATLAS 2AS CENTAUR R/B 4.3 16:42:40 10° SE 16:46:41 15° ESE 16:50:45 10° ENE
Tsikada Rocket 4.5 16:42:36 10° NNW 16:48:41 65° W 16:54:46 10° S
Okean 2 Rocket 3.7 16:45:29 10° SSE 16:49:30 33° E 16:53:32 10° NNE
NOSS 2-2 (D) 3.1 16:46:51 10° SW 16:50:22 79° WNW 16:54:00 10° NNE
Okean-O 3.6 16:51:16 10° S 16:55:35 51° W 16:59:55 10° NNW
Cosmos 1300 Rocket 3.9 16:54:20 10° SSE 16:58:25 40° E 17:02:33 10° NNE
CENTAUR R/B 4.5 16:54:00 10° N 16:59:55 21° NE 17:04:47 14° ENE
USA 116 4.4 16:57:27 10° N 17:00:57 56° WNW 17:04:52 10° SSW
Iridium 4 Rocket 4.3 16:57:02 10° SSW 17:01:43 54° W 17:06:52 10° N
Okean 2 3.9 16:58:31 10° NNW 17:02:39 64° W 17:06:44 10° S
CZ-2C R/B 0.9 17:00:25 10° WSW 17:04:00 65° S 17:05:38 28° ESE
YAOGAN 1 3.3 17:01:07 10° S 17:05:22 56° W 17:09:38 10° NNW
H-2A R/B 1.9 17:01:08 10° SSE 17:06:01 72° ENE 17:11:03 10° N
Cosmos 1174 4.4 17:01:44 10° S 17:06:09 56° ESE 17:11:45 10° NE
SJ-11-01 4.2 17:03:51 10° SSE 17:08:34 84° ENE 17:13:17 10° N
Cosmos 1891 Rocket 4.4 17:04:53 10° S 17:11:01 71° E 17:17:04 10° NNE
CZ-4 R/B 3.1 17:08:00 10° SSW 17:11:54 36° W 17:15:49 10° NNW
ARGOS 3.1 17:13:20 10° SSE 17:18:38 71° ENE 17:23:59 10° N
In-Cosmos 22 4.3 17:14:24 10° N 17:19:31 47° ENE 17:22:46 21° SE
ISS -1.8 17:17:13 10° W 17:20:12 28° NNW 17:23:09 10° NNE
Cosmos 1437 4.2 17:18:28 10° NNW 17:21:14 35° W 17:23:59 10° SSW
Cosmos 1536 Rocket 4.2 17:17:17 10° NNE 17:21:20 33° ENE 17:21:48 32° E
CZ-2C R/B 2.7 17:21:53 10° NNE 17:27:22 59° E 17:32:54 10° S
Longmarch 3A Rocket 3.3 17:28:07 10° SSW 17:29:22 18° S 17:29:22 18° S
Cosmos 2151 Rocket 3.4 17:26:28 10° S 17:30:51 71° E 17:35:19 10° NNE
Cosmos 1025 Rocket 3.0 17:27:16 10° N 17:31:37 60° E 17:33:06 38° SE
DELTA 2 R/B (1) 3.6 17:26:42 10° WNW 17:32:13 71° SSW 17:34:30 36° SE
Ariane Rocket 3.0 17:32:43 32° SE 17:34:56 59° ENE 17:39:55 10° N
CZ-2C R/B 4.2 17:30:16 10° S 17:35:08 44° W 17:40:19 10° NNW
STPSAT 2 (USA 217) 4.4 17:30:54 10° NNW 17:35:24 78° ENE 17:36:59 40° SSE
Cosmos 1844 3.7 17:29:53 10° S 17:35:27 57° ESE 17:41:00 10° NNE
IRIS 4.2 17:32:14 10° WSW 17:35:22 65° SW 17:35:22 65° SW
Cosmos 1707 2.8 17:32:42 10° N 17:36:32 75° W 17:38:39 25° S
NOSS 3-2 (A) 4.5 17:32:18 10° NNW 17:39:40 47° NE 17:42:54 33° E
SJ-6B 3.1 17:40:37 45° NE 17:40:37 45° NE 17:43:36 10° N
USA 186 2.3 17:41:31 49° N 17:41:31 49° N 17:43:57 10° N
Cosmos 2034 Rocket 3.9 17:34:40 10° S 17:41:02 82° E 17:47:24 10° N
MOS 1 4.3 17:38:41 34° SE 17:41:04 59° ENE 17:46:40 10° N
Nadezhda 4 Rocket 3.9 17:35:35 10° N 17:41:39 62° E 17:44:40 30° SSE
Cosmos 1844 Rocket 2.5 17:38:50 10° SSW 17:44:24 86° ESE 17:50:00 10° NNE
Cosmos 2298 Rocket 4.3 17:42:42 10° SSW 17:47:59 67° WNW 17:53:18 10° NNE
SPOT 3 Rocket 4.3 17:52:17 35° NE 17:52:17 35° NE 17:56:12 10° N
USA 234 3.2 17:51:54 10° NE 17:58:29 88° NW 18:05:03 10° SW
Milstar 3 Cent rocket 3.3 17:54:24 10° SW 17:59:12 28° S 17:59:12 28° S
MetOp-A 4.0 18:01:36 58° SSE 18:02:43 85° ENE 18:08:06 10° NNW
Resurs 01 Rocket 3.5 18:05:19 19° NNE 18:05:19 19° NNE 18:06:51 10° N
Cosmos 1867 3.9 18:01:39 10° NW 18:07:02 63° WSW 18:08:20 48° S
Meteor 1-15 Rocket 4.3 18:02:17 10° SSW 18:07:51 78° W 18:13:33 10° N
Cosmos 1634 Rocket 4.0 18:14:26 60° ENE 18:14:26 60° ENE 18:19:50 10° NNE
NOSS 3-4 (A) 4.5 18:08:17 10° SSW 18:22:35 - NE 18:10:57 28° S
NOSS 3-2 (C) 4.3 18:07:02 10° NNW 18:14:28 49° NE 18:15:36 47° ENE
OBJECT-B 3.9 18:19:21 11° NNW 18:19:21 11° NNW 18:19:26 10° NNW
Cosmos 2285 Rocket 4.1 18:14:40 10° SSW 18:20:57 74° WNW 18:27:17 10° NNE
Cosmos 1125 Rocket 4.3 18:20:41 10° SW 18:25:49 50° WNW 18:30:59 10° N
ATLAS 2AS CENTAUR R/B 2.9 18:28:42 10° SSW 18:36:35 83° ESE 18:44:34 10° NNE
Cosmos 1092 Rocket 4.1 18:34:55 10° N 18:40:57 71° W 18:40:57 71° W
Meteor 2-5 Rocket 4.3 18:38:44 10° N 18:42:58 52° NNW 18:42:58 52° NNW
Cosmos 2026 Rocket 4.3 18:41:02 10° N 18:46:19 63° NNW 18:46:19 63° NNW
CENTAUR R/B 3.1 18:43:38 10° NNW 18:51:58 75° ENE 18:51:58 75° ENE
ATLAS 3B R/B 4.1 18:52:40 10° NNW 18:56:56 27° NNE 18:56:56 27° NNE
USA 238 DEB 4.1 18:55:42 10° NW 19:02:30 64° W 19:02:30 64° W
USA 238 4.1 18:55:48 10° NW 19:02:35 65° W 19:02:35 65° W
